Content
SEND FEEDBACK

Daily
Averages
Monthly
Summary
United States of America

MANGILAO, GUAM


Home > North America > United States > Guam
Elevation: 60 feet     Latitude: 13 27N     Longitude: 144 49E

WEATHER
 
SELECT A DAY
Number of Records: 341,631;   Date Range: 1/1/95 - 7/20/14
 
SHARE

PRINT THIS DATA

[ ← Previous Day ]
WEATHER ALMANAC - NOVEMBER 20, 2013
[ Next Day → ]
[ °C ]   °F
Weather ElementAverageHighLow
Temperature80.3 °F84.2 °F (1:33 pm)77 °F (5:20 am)
Dewpoint76.2 °F78.8 °F (1:38 pm)71.6 °F (5:28 am)
Humidity87.8 %100 % (5:27 pm)78 % (2:58 pm)
Barometer29.87 in29.93 in (9:10 am)29.79 in (2:58 pm)
Wind Speed15.4 mph23 mph (5:17 pm)
Wind Gust28.8 mph (5:17 pm)
Weather ElementAverage
Visibility9.5 mi
Wind DirectionENE (58.8 °)

Weather ElementTotal
Precipitation0.09 in
Cooling Degree Days15.6 (Base 65)
Growing Degree Days30.6 (Base 50)
Averaged from 66 records on November 20, 2013
WEATHER CONDITIONS BREAKOUT
WIND DIRECTION BREAKOUT
WEATHER BY HOUR - NOVEMBER 20, 2013
[ °C ]   °F
Local TimeTemperatureDewpointHumidityBarometerVisibilityWind DirectionWind SpeedGust SpeedPrecipitationEventsConditions
12:28 AM78.8 °F75.2 °F89 %29.90 in10.0 miENE (70°)12.7 mphScattered Clouds
12:58 AM78.8 °F75.4 °F89 %29.87 in10.0 miENE (60°)10.4 mphPartly Cloudy
1:48 AM78.8 °F75.2 °F89 %29.89 in10.0 miEast (80°)13.8 mphMostly Cloudy
1:53 AM78.8 °F75.2 °F89 %29.89 in10.0 miEast (80°)12.7 mphScattered Clouds
1:58 AM79.7 °F75.6 °F87 %29.86 in10.0 miEast (80°)12.7 mphScattered Clouds
2:58 AM79.2 °F76.3 °F91 %29.84 in10.0 miENE (60°)10.4 mphPartly Cloudy
3:58 AM79.0 °F76.3 °F91 %29.84 in10.0 miNE (50°)10.4 mphPartly Cloudy
4:58 AM78.4 °F75.7 °F91 %29.84 in10.0 miENE (60°)8.1 mphClear
5:20 AM77.0 °F73.4 °F89 %29.87 in10.0 miNE (50°)19.6 mphLight Drizzle
5:28 AM77.0 °F71.6 °F83 %29.87 in10.0 miNE (50°)16.1 mphScattered Clouds
5:58 AM78.4 °F76.1 °F92 %29.84 in10.0 miNE (40°)16.1 mph0.00 inScattered Clouds
6:58 AM80.6 °F75.2 °F84 %29.87 in10.0 miENE (60°)19.6 mph23.0 mphMostly Cloudy
7:03 AM80.6 °F73.4 °F79 %29.91 in10.0 miENE (60°)18.4 mphMostly Cloudy
7:08 AM80.6 °F73.4 °F79 %29.90 in10.0 miNE (50°)17.3 mphScattered Clouds
7:58 AM81.0 °F74.3 °F80 %29.89 in10.0 miNE (50°)15.0 mphPartly Cloudy
8:13 AM80.6 °F75.2 °F84 %29.92 in10.0 miENE (60°)15.0 mphMostly Cloudy
8:18 AM80.6 °F77.0 °F89 %29.92 in10.0 miENE (60°)17.3 mphMostly Cloudy
8:58 AM81.7 °F77.4 °F87 %29.89 in10.0 miENE (60°)13.8 mphScattered Clouds
9:10 AM80.6 °F77.0 °F89 %29.93 in10.0 miNE (50°)16.1 mph23.0 mphRainLight Rain
9:37 AM78.8 °F75.2 °F89 %29.93 in10.0 miENE (60°)16.1 mph21.9 mphPartly Cloudy
9:58 AM79.9 °F75.7 °F87 %29.91 in10.0 miENE (70°)15.0 mph0.01 inScattered Clouds
10:58 AM83.1 °F77.4 °F83 %29.88 in10.0 miENE (60°)15.0 mph19.6 mphScattered Clouds
11:58 AM83.5 °F77.9 °F83 %29.86 in10.0 miENE (60°)13.8 mph19.6 mphScattered Clouds
12:29 PM80.6 °F73.4 °F79 %29.88 in10.0 miENE (70°)12.7 mphLight Drizzle
12:37 PM80.6 °F73.4 °F79 %29.87 in10.0 miENE (60°)12.7 mphMostly Cloudy
12:58 PM81.1 °F76.6 °F86 %29.83 in10.0 miENE (70°)12.7 mph0.00 inMostly Cloudy
1:33 PM84.2 °F77.0 °F79 %29.85 in10.0 miENE (70°)16.1 mphMostly Cloudy
1:38 PM84.2 °F78.8 °F84 %29.84 in10.0 miENE (70°)15.0 mph21.9 mphMostly Cloudy
1:43 PM84.2 °F77.0 °F79 %29.84 in10.0 miENE (60°)15.0 mphScattered Clouds
1:53 PM82.4 °F77.0 °F84 %29.84 in10.0 miNE (50°)19.6 mphMostly Cloudy
1:58 PM82.8 °F76.5 °F81 %29.81 in10.0 miNE (50°)18.4 mphMostly Cloudy
2:18 PM82.4 °F75.2 °F79 %29.84 in10.0 miENE (60°)13.8 mphMostly Cloudy
2:33 PM84.2 °F77.0 °F79 %29.84 in10.0 miENE (60°)17.3 mph21.9 mphMostly Cloudy
2:58 PM83.7 °F76.3 °F78 %29.79 in10.0 miENE (60°)17.3 mphPartly Cloudy
3:43 PM82.4 °F77.0 °F84 %29.83 in10.0 miNE (50°)17.3 mphMostly Cloudy
3:48 PM82.4 °F77.0 °F84 %29.83 in10.0 miNE (50°)18.4 mphMostly Cloudy
3:58 PM82.6 °F75.9 °F80 %29.81 in10.0 miNE (50°)17.3 mphMostly Cloudy
4:43 PM80.6 °F77.0 °F89 %29.84 in10.0 miENE (60°)13.8 mphMostly Cloudy
4:48 PM80.6 °F77.0 °F89 %29.85 in10.0 miENE (60°)15.0 mphMostly Cloudy
4:53 PM80.6 °F77.0 °F89 %29.85 in10.0 miENE (60°)15.0 mphMostly Cloudy
4:58 PM81.1 °F76.3 °F85 %29.82 in10.0 miENE (60°)13.8 mphMostly Cloudy
5:08 PM80.6 °F77.0 °F89 %29.85 in10.0 miENE (60°)15.0 mphScattered Clouds
5:13 PM80.6 °F77.0 °F89 %29.85 in10.0 miENE (60°)20.7 mph26.5 mphMostly Cloudy
5:17 PM80.6 °F77.0 °F89 %29.85 in5.0 miENE (70°)23.0 mph28.8 mphRainLight Rain
5:22 PM78.8 °F77.0 °F94 %29.85 in1.8 miENE (70°)20.7 mph28.8 mphRainRain
5:27 PM77.0 °F77.0 °F100 %29.86 in1.5 miENE (70°)16.1 mph28.8 mphRainRain
5:32 PM77.0 °F77.0 °F100 %29.85 in3.0 miENE (70°)15.0 mphRainLight Rain
5:37 PM77.0 °F77.0 °F100 %29.86 in8.0 miENE (60°)13.8 mph19.6 mphRainLight Rain
5:40 PM77.0 °F77.0 °F100 %29.86 in10.0 miENE (60°)12.7 mph19.6 mphMostly Cloudy
5:45 PM77.0 °F77.0 °F100 %29.86 in10.0 miENE (60°)12.7 mph19.6 mphMostly Cloudy
5:58 PM77.7 °F75.7 °F94 %29.83 in10.0 miNE (50°)10.4 mph0.08 inMostly Cloudy
6:58 PM79.7 °F77.4 °F93 %29.86 in10.0 miENE (60°)17.3 mphMostly Cloudy
7:23 PM80.6 °F77.0 °F89 %29.90 in10.0 miNE (50°)18.4 mph25.3 mphScattered Clouds
7:28 PM80.6 °F77.0 °F89 %29.90 in10.0 miNE (50°)18.4 mph25.3 mphMostly Cloudy
7:33 PM80.6 °F77.0 °F89 %29.90 in10.0 miENE (60°)15.0 mphScattered Clouds
7:58 PM79.7 °F77.7 °F94 %29.87 in10.0 miENE (60°)15.0 mphPartly Cloudy
8:58 PM80.1 °F76.1 °F88 %29.88 in10.0 miENE (60°)17.3 mphMostly Cloudy
9:46 PM80.6 °F77.0 °F89 %29.91 in9.0 miENE (60°)17.3 mph21.9 mphRainLight Rain
9:51 PM78.8 °F77.0 °F94 %29.91 in8.0 miNE (50°)13.8 mphLight Drizzle
9:57 PM78.8 °F77.0 °F94 %29.91 in10.0 miNE (50°)13.8 mphMostly Cloudy
9:58 PM78.8 °F77.0 °F94 %29.88 in10.0 miNE (50°)12.7 mph0.00 inMostly Cloudy
10:53 PM80.6 °F77.0 °F89 %29.91 in10.0 miNE (50°)16.1 mphMostly Cloudy
10:58 PM79.9 °F76.6 °F90 %29.88 in10.0 miNE (50°)15.0 mphMostly Cloudy
11:03 PM78.8 °F77.0 °F94 %29.91 in10.0 miNE (50°)15.0 mphScattered Clouds
11:53 PM80.6 °F75.2 °F84 %29.90 in10.0 miNE (50°)18.4 mphMostly Cloudy
11:58 PM80.6 °F77.0 °F89 %29.87 in10.0 miNE (50°)16.1 mphScattered Clouds
Hourly data recorded from PGUA, located miles away from Mangilao, Guam







STORIES FROM OUR PARTNERS